A/2019 Q1

Japanese version
Home page
Updated on November 9, 2019

---------------------------------------------------------------------

* Profile

Discovery Date August 28, 2019
Magnitude 20.6 mag
Discoverer Mt. Lemmon Survey

* Orbital Elements

Epoch 2020 July 10.0 TT = JDT 2459040.5
T 2020 July 19.98795 TT                                 Williams
q   4.9963228            (2000.0)            P               Q
z  +0.0003760      Peri.   55.93536     +0.92257125     -0.26862042
 +/-0.0001831      Node    42.32948     -0.30163369     -0.94975084
e   0.9981214      Incl.  155.71434     +0.24058138     -0.16067484
H   12.5
From 98 observations 2019 Aug. 28-Nov. 3, mean residual 0".4.

* Magnitudes Graph

        H = 12.5  G = 0.15

---------------------------------------------------------------------

The orbital elements are published on M.P.E.C. 2019-V116.
The magnitudes graphs are made with Comet for Windows.

---------------------------------------------------------------------

Copyright(C) Seiichi Yoshida (comet@aerith.net). All rights reserved.